Location: Newark
(22.3060°N, 114.2134°E)
Time: 05:42:54
(UTC+00:00)

Vanguard 2 - Pass Details

Date: 09 August 2021
Orbit: 553 x 2937 km, 32.9° (Epoch: 24 September)

Event Time Altitude Azimuth Distance (km) Brightness Sun altitude
Rises 00:38:53 0° 287° (WNW) 3,062 10.2 35.6°
Reaches altitude 10° 00:40:56 10° 282° (WNW) 2,308 9.6 36.1°
Maximum altitude 00:46:07 49° 207° (SSW) 1,285 8.9 37.3°
Drops below altitude 10° 00:54:25 10° 135° (SE) 3,661 11.6 39.2°
Sets 00:58:30 0° 131° (SE) 5,062 12.2 40.1°
